This is the latest recevied weather packets stored in our database for station/object IZ4UFQ-10. If no packets are shown the sender has not sent any weather packets the latest 10 day(s).
| Time | Temp. | Humidity | Pressure | Rain* | Wind** | Luminosity | Snow |
|---|---|---|---|---|---|---|---|
| 1777965968 | 13.89° C | 90% | 1012.9 hPa | 2.54 mm | - | 100 W/m² | - |
| 1777965668 | 13.89° C | 90% | 1012.9 hPa | 3.05 mm | - | 84 W/m² | - |
| 1777965368 | 13.89° C | 90% | 1012.9 hPa | 4.06 mm | - | 95 W/m² | - |
| 1777965067 | 13.89° C | 90% | 1012.9 hPa | 4.83 mm | - | 74 W/m² | - |
| 1777964767 | 13.89° C | 89% | 1013 hPa | 5.59 mm | - | 72 W/m² | - |
| 1777964467 | 13.89° C | 89% | 1013 hPa | 6.1 mm | - | 84 W/m² | - |
| 1777964166 | 13.89° C | 89% | 1012.9 hPa | 6.6 mm | - | 102 W/m² | - |
| 1777963866 | 13.89° C | 89% | 1012.9 hPa | 6.6 mm | - | 67 W/m² | - |
| 1777963566 | 13.89° C | 88% | 1013.2 hPa | 6.6 mm | - | 40 W/m² | - |
| 1777963265 | 13.89° C | 88% | 1013.1 hPa | 6.35 mm | - | 28 W/m² | - |
| 1777962965 | 13.89° C | 87% | 1013 hPa | 5.84 mm | - | 19 W/m² | - |
| 1777962665 | 14.44° C | 86% | 1013.1 hPa | 5.33 mm | - | 14 W/m² | - |
| 1777962365 | 14.44° C | 85% | 1013.2 hPa | 4.57 mm | - | 11 W/m² | - |
| 1777962064 | 14.44° C | 85% | 1013.3 hPa | 4.06 mm | - | 9 W/m² | - |
| 1777961764 | 14.44° C | 83% | 1013.3 hPa | 3.05 mm | - | 7 W/m² | - |
| 1777961464 | 15° C | 83% | 1013.4 hPa | 2.29 mm | - | 5 W/m² | - |
| 1777961163 | 15° C | 82% | 1013.3 hPa | 1.52 mm | - | 5 W/m² | - |
| 1777960863 | 15° C | 81% | 1013.3 hPa | 1.02 mm | - | 5 W/m² | - |
| 1777960563 | 15° C | 80% | 1013.2 hPa | 0.51 mm | - | 5 W/m² | - |
| 1777960263 | 15° C | 78% | 1013 hPa | 0.25 mm | - | 5 W/m² | - |
| 1777959962 | 15.56° C | 77% | 1012.8 hPa | 0 mm | - | 11 W/m² | - |
| 1777959662 | 15.56° C | 76% | 1012.8 hPa | 0 mm | - | 18 W/m² | - |
| 1777959362 | 15.56° C | 76% | 1012.7 hPa | 0 mm | - | 19 W/m² | - |
| 1777959061 | 15.56° C | 75% | 1012.6 hPa | 0 mm | - | 19 W/m² | - |
| 1777958761 | 15.56° C | 75% | 1012.6 hPa | 0 mm | - | 14 W/m² | - |
* Rain latest hour (hover to see other rain measurements)
** Current wind speed in m/s (hover to see current wind gust speed)